Location: Lake Almanor
(40.2485°N, 121.1442°W)
Time: 18:32:03
(UTC-08:00)

STARLINK-1077 - Pass Details

Date: 03 February 2020
Orbit: 348 x 351 km, 53.0° (Epoch: 28 February)

Event Time Altitude Azimuth Distance (km) Brightness Sun altitude
Rises 17:46:29 0° 307° (NW) 2,172 7.2 -4.6°
Reaches altitude 10° 17:48:31 10° 306° (NW) 1,325 6.2 -5.0°
Maximum altitude 17:51:27 71° 221° (SW) 377 3.0 -5.6°
Drops below altitude 10° 17:54:22 10° 137° (SE) 1,315 5.3 -6.1°
Sets 17:56:22 0° 135° (SE) 2,154 6.4 -6.5°
